Погода в Зилупе

Латвия     56°23′20″N   28°07′13″E
темп.,
°C
ветер,
м/с
пор.,
м/с
влажн.,
%
обл.,
%
осадки,
мм/ч
давл.,
гПа
погр.,
м
21 января, пт
пт2123:00−3ю71490100 0.1 987971
02:00−4ююв61392100 0.4 985641
05:00−3юв3696100 1.4 985352
08:00−5ссз369796 2.0 988227
11:00−4ссз389298 0.1 991588
14:00−3ссз378889 0.3 993716
17:00−5с269596 0.3 994352
20:00−5с389477 0.6 997349
22 января, сб
сб2223:00−5с41194100 0.1 1000672
02:00−6с51194100 0.3 1003680
05:00−6с4119399 0.3 1006515
08:00−5ссз51294100 0.8 1008831
11:00−4ссз61190100 0.8 1010856
14:00−4ссз51093100 1.3 1011764
17:00−6с51092100 0.7 1015674
20:00−8с3995100 0.8 1018376
23 января, вс
вс2323:00−9ссз389795 0.1 1020297
02:00−11ссз279996 0.1 1022161
05:00−13сз11100100 0.1 102427
08:00−14с11100100 0.1 102710
11:00−9ссв129023 0.0 1029132
14:00−7зюз018454 0.0 1030199
17:00−11юз119758 0.0 103210
20:00−13ююз119761 0.0 103417
24 января, пн
пн2423:00−12ююз259615 0.0 103574
02:00−11ююз289436 0.0 1035154
05:00−11ююз28935 0.0 1035165
08:00−11ю39925 0.0 1035180
11:00−7ю411845 0.0 1034303
14:00−5ю412815 0.0 1032415
17:00−7ю513865 0.0 1030368
20:00−7ю5148486 0.0 1028373
25 января, вт
вт2523:00−6ююз51587100 0.0 1026435
02:00−5ююз51492100 0.3 1023485
05:00−4ююз51393100 0.1 1020481
08:00−2юз41292100 0.4 1018492
11:000зюз41093100 0.1 1017906
14:00+1зсз499274 0.2 1016820
17:00−3зсз38905 0.0 1017209
20:00−4зсз412879 0.0 1018531